Location: Unspecified
(0.0000°N, 0.0000°E)
Time: 13:44:01
(UTC+00:00)

Vanguard 2 Rocket - Pass Details

Date: 19 November 2019
Orbit: 554 x 3326 km, 32.9° (Epoch: 08 December)

Event Time Altitude Azimuth Distance (km) Brightness Sun altitude
Rises 11:36:37 0° 272° (W) 6,454 11.2 70.4°
Reaches altitude 10° 11:41:24 10° 262° (W) 5,753 11.1 70.5°
Maximum altitude 11:57:10 32° 206° (SSW) 4,663 11.4 70.3°
Drops below altitude 10° 12:13:43 10° 149° (SSE) 5,945 11.4 69.3°
Sets 12:18:54 0° 139° (SE) 6,677 11.4 68.9°
